Vorticity
nan nan nan nan nan nan nan nan nan nan nan nan nan nan nan nan nan nan nan nan nan nan nan nan nan nan nan nan nan nan nan nan
nan 6 7 8 5 4 8 5 2 3 3 7 14 17 14 11 9 8 7 6 7 6 7 8 8 7 6 6 6 6 5 nan
nan 6 7 10 7 4 7 4 6 5 4 6 12 10 9 13 15 12 13 9 6 5 7 7 9 9 9 6 6 6 7 nan
nan 6 6 10 7 8 7 7 7 5 5 7 8 6 8 8 10 19 17 8 9 11 12 10 6 6 10 9 6 6 6 nan
nan 8 7 8 8 10 8 7 6 5 4 8 7 10 9 8 8 8 9 15 14 11 10 9 6 5 6 9 7 5 5 nan
nan 7 8 9 9 7 7 8 8 5 6 7 8 8 6 7 7 8 10 9 7 12 12 11 12 8 5 5 8 3 5 nan
nan 7 8 8 9 8 8 8 7 7 8 7 7 8 7 7 7 7 8 10 10 6 7 9 11 11 11 9 11 12 6 nan
nan 7 7 8 8 8 9 7 7 8 8 6 7 9 8 6 8 8 8 8 8 9 8 8 8 11 9 7 7 13 11 nan
nan 8 6 7 9 9 9 7 7 8 8 5 7 8 6 8 8 7 7 6 7 9 11 11 7 6 8 12 10 4 4 nan
nan 7 7 8 10 10 9 8 8 9 8 6 8 5 7 9 8 7 7 7 9 8 8 8 11 9 8 9 9 9 9 nan
nan 7 6 9 11 9 8 9 9 8 7 7 7 6 9 7 8 7 8 9 8 8 8 8 8 10 10 7 8 8 10 nan
nan 7 6 10 10 8 9 8 7 7 8 6 9 8 8 10 9 8 8 9 8 6 7 8 9 8 7 11 12 9 9 nan
nan 8 8 10 8 7 8 8 8 8 8 6 7 10 8 11 9 7 9 9 7 9 8 8 9 9 10 11 10 11 9 nan
nan 7 9 11 9 9 8 8 9 9 6 7 6 6 8 8 9 9 9 8 8 7 10 12 10 9 7 9 12 11 12 nan
nan 7 9 8 9 10 9 10 9 8 8 7 5 6 8 8 10 10 10 11 9 7 8 8 9 11 12 9 8 8 8 nan
nan 7 9 8 8 9 9 11 9 9 8 7 6 8 8 9 10 10 10 10 8 10 8 7 8 7 10 12 7 7 6 nan
nan 8 8 7 8 10 10 9 10 9 7 7 10 9 9 10 9 9 10 9 9 10 10 8 7 7 7 5 9 14 11 nan
nan 9 8 7 8 8 9 9 10 9 10 11 9 9 9 8 9 10 10 10 10 10 11 12 10 8 7 7 8 6 7 nan
nan 8 8 7 8 8 8 9 9 9 10 10 10 11 9 7 9 12 11 10 12 12 13 13 11 10 8 9 8 6 6 nan
nan nan nan nan nan nan nan nan nan nan nan nan nan nan nan nan nan nan nan nan nan nan nan nan nan nan nan nan nan nan nan nan
CAPE
0 0 0 0 0 0 48 242 446 615 1140 1134 1429 1595 1762 1918 1958 2039 2069 2290 2169 2401 2369 2254 2005 1327 1149 1102 1069 1083 923 845
0 0 0 0 0 0 0 161 428 405 468 203 539 1169 1350 1641 1664 1746 1942 2049 2086 2097 2112 2105 1941 1392 1056 979 954 889 754 768
0 0 0 0 0 0 0 2 93 153 21 14 166 705 1583 1681 1462 1119 1402 1704 1730 1664 1719 1891 1877 1513 1106 957 895 876 879 771
0 0 0 0 0 0 0 0 0 0 0 0 0 75 805 856 1309 1187 964 1078 1296 1322 1512 1511 1560 1789 1260 928 869 971 978 816
0 0 0 0 0 0 0 0 0 0 0 0 0 0 31 15 301 1396 1476 1014 1084 1091 1181 1203 1463 1594 1307 1182 1003 951 850 824
0 0 0 0 0 0 0 0 0 0 0 0 0 0 0 0 0 0 632 1762 1149 902 1072 1065 991 1242 1268 1050 1118 997 936 810
0 0 0 0 0 0 0 0 0 0 0 0 0 0 0 0 0 0 0 211 1405 1493 1007 570 429 506 684 855 930 886 891 746
0 0 0 0 0 0 0 0 0 0 0 0 0 0 0 0 0 0 0 0 0 402 547 414 104 335 316 445 325 269 74 77
0 0 0 0 0 0 0 0 0 0 0 0 0 0 0 0 0 0 0 0 0 0 3 670 320 17 41 0 234 209 56 0
0 0 0 0 0 0 0 0 0 0 0 0 0 0 0 0 0 0 0 0 0 0 0 0 78 35 0 11 111 8 95 5
0 0 0 0 0 0 0 0 0 0 0 0 0 0 0 0 0 0 0 0 0 0 0 0 0 21 28 0 20 67 10 0
0 0 0 0 0 0 0 0 0 0 0 0 0 0 0 0 3 0 0 0 0 0 0 0 0 0 0 0 0 0 0 0
0 0 0 0 0 0 0 0 0 0 0 0 0 0 0 0 0 0 0 0 0 0 0 0 0 0 0 0 10 35 17 0
0 0 0 0 0 0 0 0 0 0 0 0 0 0 0 0 0 4 7 3 0 0 2 5 0 0 0 0 1 6 28 10
0 0 0 0 0 0 0 0 0 0 0 0 0 0 0 1 4 6 6 16 15 7 0 0 2 1 1 12 20 5 24 94
0 0 0 0 0 0 0 0 0 0 0 0 0 5 9 12 18 17 14 4 5 18 3 2 6 4 0 0 1 1 1 75
0 0 0 0 0 0 0 0 0 0 1 4 9 10 14 14 18 15 8 15 14 17 5 18 7 8 9 0 0 0 0 112
0 0 0 0 0 0 0 0 0 1 3 6 9 14 15 17 17 19 19 18 20 14 19 30 28 17 10 5 4 6 1 2
0 0 0 0 0 0 0 0 2 2 6 9 11 19 21 20 18 21 24 22 25 18 16 15 21 20 24 16 2 2 6 11
0 0 0 0 0 0 0 0 4 6 7 13 19 24 23 25 22 22 21 23 29 22 15 14 18 19 11 25 26 7 3 7